User: anonymous   Login
Location: *
(33.3200°N, 8.3381°W)
Time: 00:34:21
(UTC+00:00)
Language:

Cosmos 2181 Rocket - Orbit

View from above orbital plane
View from above orbital plane
View from above satellite
View from above satellite

Ground track
Ground track

The orbit data is extracted from the following two-line orbital elements,

1 21903U 92012B   20192.75809594  .00000005  00000-0 -10740-4 0  9992
2 21903  82.9364  74.4109 0042011 210.4992 211.9088 13.74518004421367
Epoch (UTC): 10 July 2020 18:11:39
Eccentricity: 0.0042011
inclination: 82.9364°
perigee height: 952 km
apogee height: 1014 km
right ascension of ascending node: 74.4109°
argument of perigee: 210.4992°
revolutions per day: 13.74518004
mean anomaly at epoch: 211.9088°
orbit number at epoch: 42136

The dashed part of the orbit path shows where the satellite is in the earth's shadow,  

DLR